FW0308 Weather Reports


time (UTC)temp
C
wind
direction
speed
KPH
gust
KPH
rain 1hr
cm
rain 24hr
cm
rain mn
cm
humidity
%
barometer
mb
20260510071514 8 155 0.0 0.0 0.00 0.00 0.00 95 1013.0
20260510070021 8 210 0.0 0.0 0.00 0.00 0.00 95 1013.7
20260510064513 8 210 0.0 0.0 0.00 0.00 0.00 95 1013.8
20260510063013 8 210 0.0 0.0 0.00 0.00 0.00 94 1013.8
20260510061510 7 210 0.0 0.0 0.00 0.00 0.00 94 1014.0
20260510060010 7 224 0.0 0.0 0.00 0.00 0.00 93 1014.1
20260510054508 7 206 0.0 0.0 0.00 0.00 0.00 93 1013.3
20260510053026 7 207 0.0 0.0 0.00 0.00 0.00 93 1013.3
20260510051506 8 176 0.0 0.0 0.00 0.00 0.00 93 1013.5
20260510050005 8 141 0.0 0.0 0.00 0.00 0.00 93 1013.5
20260510044502 8 260 0.0 0.0 0.00 0.00 0.00 94 1013.3
20260510043105 8 222 0.0 0.0 0.00 0.00 0.00 94 1012.6
20260510041556 8 137 0.0 0.0 0.00 0.00 0.00 94 1012.6
20260510040054 8 137 0.0 0.0 0.00 0.00 0.00 93 1012.7
20260510034553 8 137 0.0 0.0 0.00 0.00 0.00 93 1012.5
20260510033102 8 293 0.0 0.0 0.00 0.00 0.00 93 1012.5
20260510031554 8 252 0.0 0.0 0.00 0.00 0.00 93 1012.4
20260510030052 8 195 0.0 0.0 0.00 0.00 0.00 93 1012.5
20260510024552 8 262 0.0 0.0 0.00 0.00 0.00 93 1012.4
20260510023051 8 232 0.0 0.0 0.00 0.00 0.00 93 1012.5
20260510021552 8 231 0.0 0.0 0.00 0.00 0.00 92 1012.7
20260510020050 8 232 0.0 0.0 0.00 0.00 0.00 92 1012.7
20260510014549 8 232 0.0 0.0 0.00 0.00 0.00 92 1012.4
20260510013052 8 231 0.0 0.0 0.00 0.00 0.00 91 1012.5
20260510011551 8 231 0.0 0.0 0.00 0.00 0.00 91 1012.5
20260510010047 9 235 0.0 0.0 0.00 0.00 0.00 91 1012.2
20260510004551 9 235 0.0 0.0 0.00 0.00 0.00 90 1012.3
20260510003047 10 235 0.0 0.0 0.00 0.00 0.00 89 1012.2
20260510001546 10 235 0.0 0.0 0.00 0.00 0.00 88 1011.9
20260510000051 10 238 0.0 0.0 0.00 0.00 0.00 87 1011.7
20260509234545 11 238 0.0 0.0 0.00 0.00 0.00 86 1011.3
20260509233044 11 238 0.0 0.0 0.00 0.00 0.00 85 1011.4
20260509231545 11 239 0.0 0.0 0.00 0.00 0.00 86 1011.2
20260509230042 11 231 0.0 0.0 0.00 0.00 0.00 87 1011.1
20260509224540 11 231 0.0 0.0 0.00 0.00 0.00 86 1011.3
20260509223039 11 228 0.0 0.0 0.00 0.00 0.00 88 1011.3
20260509221538 11 259 0.0 0.0 0.00 0.00 0.00 88 1011.4
20260509220035 11 236 0.0 0.0 0.00 0.00 0.00 90 1011.7
20260509214542 11 237 0.0 0.0 0.00 0.00 0.00 90 1011.7
20260509213036 11 274 0.0 0.0 0.00 0.00 0.00 90 1011.9
20260509211532 11 241 0.0 0.0 0.00 0.00 0.00 92 1011.9
20260509210033 11 254 0.0 0.0 0.00 0.00 0.00 93 1011.8
20260509204526 10 243 0.0 0.0 0.00 0.00 0.00 93 1011.7
20260509203026 10 243 0.0 0.0 0.00 0.00 0.00 92 1012.0
20260509201523 10 243 0.0 0.0 0.00 0.00 0.00 92 1012.3
20260509200022 10 250 0.0 0.0 0.00 0.00 0.00 92 1012.2
20260509194520 10 244 0.0 0.0 0.00 0.00 0.00 92 1012.4
20260509193026 9 285 0.0 0.0 0.00 0.00 0.00 92 1012.7
20260509191525 9 233 0.0 0.0 0.00 0.00 0.00 92 1012.8
20260509190019 9 292 0.0 0.0 0.00 0.00 0.00 91 1012.9
20260509184531 9 202 0.0 0.0 0.00 0.00 0.00 91 1013.2
20260509183022 10 241 0.0 0.0 0.00 0.00 0.00 91 1013.2
20260509181515 10 285 0.0 0.0 0.00 0.00 0.00 91 1013.3
20260509180017 10 271 0.0 0.0 0.00 0.00 0.00 91 1013.0
20260509174521 10 260 0.0 0.0 0.00 0.00 0.00 91 1013.1
20260509173014 10 256 0.0 3.2 0.00 0.00 0.00 91 1013.0
20260509171513 10 200 0.0 8.0 0.00 0.00 0.00 91 1013.0
20260509170015 10 269 0.0 1.6 0.00 0.00 0.00 91 1013.0
20260509164511 10 282 0.0 4.8 0.00 0.00 0.00 91 1013.0
20260509163012 10 285 0.0 0.0 0.00 0.00 0.00 92 1013.0
20260509161507 10 246 0.0 0.0 0.00 0.00 0.00 92 1013.3
20260509160003 10 330 0.0 0.0 0.00 0.00 0.00 92 1013.2
20260509154600 10 217 0.0 0.0 0.00 0.00 0.00 93 1013.2
20260509153107 10 257 0.0 0.0 0.00 0.00 0.00 93 1013.3
20260509151554 9 228 0.0 0.0 0.00 0.00 0.00 93 1013.4
20260509150050 8 230 0.0 0.0 0.00 0.00 0.00 93 1014.0
20260509144548 8 340 0.0 0.0 0.00 0.00 0.00 93 1014.0
20260509143047 8 107 0.0 0.0 0.00 0.00 0.00 93 1013.7
20260509141542 8 110 0.0 0.0 0.00 0.00 0.00 93 1013.6
20260509140040 8 289 0.0 0.0 0.00 0.00 0.00 93 1013.6
20260509134540 8 288 0.0 0.0 0.00 0.00 0.00 93 1013.6
20260509133039 8 288 0.0 0.0 0.00 0.00 0.00 93 1013.6
20260509131538 8 14 0.0 0.0 0.00 0.00 0.00 93 1013.5
20260509130040 8 282 0.0 0.0 0.00 0.00 0.00 94 1013.7
20260509124541 8 282 0.0 0.0 0.00 0.00 0.00 93 1013.8
20260509123031 8 276 0.0 0.0 0.00 0.00 0.00 93 1014.0
20260509121528 8 278 0.0 0.0 0.00 0.00 0.00 94 1014.0
20260509120027 8 281 0.0 0.0 0.00 0.00 0.00 93 1014.0
20260509114526 8 172 0.0 0.0 0.00 0.00 0.00 94 1014.0
20260509113027 7 141 0.0 0.0 0.00 0.00 0.00 93 1014.1
20260509111524 7 141 0.0 0.0 0.00 0.00 0.00 93 1014.0
20260509110023 7 141 0.0 0.0 0.00 0.00 0.00 93 1013.7
20260509104523 7 141 0.0 0.0 0.00 0.00 0.00 93 1013.9
20260509103022 7 141 0.0 0.0 0.00 0.00 0.00 93 1013.9
20260509101525 7 141 0.0 0.0 0.00 0.00 0.00 93 1014.0
20260509100025 7 141 0.0 0.0 0.00 0.00 0.00 93 1013.8
20260509094519 7 141 0.0 0.0 0.00 0.00 0.00 93 1013.8
20260509093019 7 141 0.0 0.0 0.00 0.00 0.00 93 1014.2
20260509091516 7 141 0.0 0.0 0.00 0.00 0.00 93 1014.2
20260509090029 7 141 0.0 0.0 0.00 0.00 0.00 93 1014.5
20260509084516 7 141 0.0 0.0 0.00 0.00 0.00 93 1014.7
20260509083029 7 141 0.0 0.0 0.00 0.00 0.00 93 1014.7
20260509081514 7 141 0.0 0.0 0.00 0.00 0.00 92 1014.5
20260509080014 7 141 0.0 0.0 0.00 0.00 0.00 92 1014.7
20260509074512 7 301 0.0 0.0 0.00 0.00 0.00 92 1014.9
20260509073022 7 301 0.0 0.0 0.00 0.00 0.00 92 1014.6